Total_Precipitation_Accumulation
0.00 0.00 0.00 0.00 0.00 0.00 0.00 0.01 0.02 0.14 0.21 0.16 0.09 0.05 0.01 0.00 0.00 0.00 0.00 0.00 0.00 0.00 0.00 0.00 0.00 0.00 0.00 0.00 0.00 0.00 0.00 0.00
0.00 0.00 0.00 0.00 0.00 0.00 0.00 0.00 0.03 0.16 0.13 0.06 0.07 0.05 0.05 0.00 0.00 0.00 0.00 0.00 0.00 0.00 0.00 0.00 0.00 0.00 0.00 0.00 0.00 0.00 0.00 0.00
0.00 0.00 0.00 0.00 0.00 0.00 0.00 0.00 0.01 0.10 0.15 0.13 0.11 0.08 0.07 0.01 0.00 0.00 0.00 0.00 0.00 0.00 0.00 0.00 0.00 0.00 0.00 0.00 0.00 0.00 0.00 0.00
0.00 0.00 0.00 0.00 0.00 0.00 0.00 0.01 0.01 0.00 0.02 0.09 0.09 0.09 0.05 0.01 0.00 0.00 0.00 0.00 0.00 0.00 0.00 0.00 0.00 0.00 0.00 0.00 0.00 0.00 0.00 0.00
0.00 0.00 0.00 0.00 0.00 0.00 0.00 0.02 0.11 0.07 0.07 0.04 0.04 0.02 0.01 0.01 0.02 0.02 0.00 0.00 0.00 0.00 0.00 0.00 0.00 0.00 0.00 0.00 0.00 0.00 0.00 0.00
0.00 0.00 0.00 0.00 0.00 0.00 0.00 0.01 0.15 0.20 0.23 0.07 0.07 0.04 0.02 0.04 0.07 0.06 0.02 0.01 0.02 0.00 0.00 0.00 0.00 0.00 0.00 0.00 0.00 0.00 0.00 0.00
0.00 0.00 0.00 0.00 0.00 0.00 0.00 0.00 0.05 0.18 0.31 0.31 0.14 0.08 0.08 0.04 0.02 0.03 0.04 0.05 0.04 0.03 0.01 0.00 0.00 0.00 0.00 0.00 0.00 0.00 0.00 0.00
0.00 0.00 0.00 0.00 0.00 0.00 0.00 0.00 0.06 0.19 0.25 0.30 0.28 0.15 0.18 0.11 0.05 0.05 0.03 0.05 0.04 0.03 0.05 0.02 0.02 0.00 0.00 0.00 0.00 0.00 0.00 0.00
0.00 0.00 0.00 0.00 0.00 0.00 0.00 0.00 0.00 0.10 0.11 0.12 0.18 0.27 0.16 0.19 0.12 0.07 0.04 0.01 0.03 0.11 0.09 0.04 0.01 0.01 0.00 0.00 0.00 0.00 0.00 0.00
0.00 0.00 0.00 0.00 0.00 0.00 0.00 0.00 0.00 0.05 0.06 0.06 0.11 0.15 0.15 0.06 0.09 0.10 0.06 0.05 0.01 0.09 0.08 0.09 0.07 0.02 0.00 0.00 0.00 0.00 0.00 0.00
0.00 0.00 0.00 0.00 0.00 0.00 0.00 0.00 0.01 0.13 0.29 0.26 0.24 0.32 0.28 0.27 0.23 0.26 0.18 0.13 0.16 0.09 0.06 0.07 0.16 0.15 0.07 0.03 0.01 0.01 0.00 0.00
0.00 0.00 0.00 0.00 0.00 0.00 0.00 0.00 0.00 0.04 0.28 0.63 0.66 0.47 0.44 0.42 0.51 0.40 0.41 0.33 0.33 0.31 0.19 0.09 0.12 0.23 0.24 0.13 0.05 0.04 0.02 0.00
0.00 0.00 0.00 0.00 0.00 0.00 0.00 0.00 0.00 0.00 0.06 0.53 0.92 0.81 0.68 0.67 0.61 0.49 0.46 0.44 0.44 0.35 0.33 0.30 0.15 0.12 0.17 0.23 0.15 0.08 0.03 0.00
0.00 0.00 0.00 0.00 0.00 0.00 0.00 0.00 0.00 0.00 0.02 0.25 0.62 0.56 0.58 0.59 0.61 0.69 0.82 0.90 0.47 0.34 0.39 0.36 0.23 0.22 0.17 0.11 0.19 0.20 0.14 0.05
0.00 0.02 0.07 0.06 0.01 0.00 0.00 0.00 0.00 0.00 0.00 0.07 0.30 0.51 0.45 0.34 0.35 0.34 0.45 0.62 0.85 0.59 0.31 0.32 0.43 0.38 0.27 0.30 0.32 0.22 0.13 0.10
0.01 0.05 0.18 0.17 0.09 0.03 0.01 0.00 0.00 0.00 0.00 0.01 0.07 0.21 0.30 0.32 0.33 0.39 0.46 0.52 0.56 0.62 0.74 0.55 0.29 0.42 0.51 0.51 0.46 0.49 0.42 0.29
0.01 0.02 0.09 0.16 0.10 0.05 0.02 0.00 0.00 0.00 0.01 0.00 0.01 0.05 0.11 0.29 0.34 0.28 0.38 0.49 0.57 0.68 0.67 0.74 0.54 0.41 0.35 0.31 0.36 0.33 0.30 0.30
0.00 0.01 0.04 0.07 0.04 0.03 0.01 0.00 0.00 0.00 0.00 0.00 0.00 0.01 0.05 0.13 0.33 0.49 0.36 0.24 0.27 0.34 0.45 0.81 1.31 1.26 0.75 0.41 0.35 0.40 0.31 0.21
0.00 0.00 0.01 0.02 0.01 0.01 0.01 0.00 0.00 0.00 0.00 0.00 0.00 0.00 0.00 0.04 0.14 0.23 0.38 0.47 0.46 0.37 0.29 0.31 0.51 1.04 1.61 1.55 1.09 0.66 0.55 0.53